星链-2344 (STARLINK-2344 )

导读 | 星芒AI

STARLINK-2344 是 SpaceX Starlink 卫星互联网项目中的一颗低轨通信卫星。它属于 Starlink 二代星座计划,旨在提供更高速、低延迟的全球互联网服务。该卫星采用先进推进系统和激光通信技术,以提升网络性能和卫星间通信效率。STARLINK-2344 于近期成功发射并进入预定轨道,加入 Starlink 群体,为全球用户提供更稳定的宽带连接,尤其在偏远和网络基础设施薄弱地区发挥重要作用。

基本信息
目录编号:
47885
目录名称:
STARLINK-2344
国际标识:
2021-021AB
轨道中心:
EARTH
卫星名称:
星链-2344
卫星全名:
星链-2344 (STARLINK-2344 )
卫星状态:
已陨落 最后检测时间 2025-03-03
发射日期:
2021-03-14 UTC
国别 :
美国 (US)
星等 :
--
轨道信息
数据来源 国际轨道数据
星历时间: 2025-03-03T22:50:19+0800
轨道信息已过期288天
半长轴: 6532.627km
偏心率: 0.0003705
轨道倾角: 53.033°
近地点辐角 25.594°
升交点赤经 107.429°
平近点角 111.304°
近地点: 152.071km
远地点: 156.913km
周期: 87.577分钟
每日圈数: 16.442621
详细信息
固有亮度:
5
最大亮度:
2.5
卫星平台:
Starlink V1.0
覆盖范围:
全球
运营商:
太空探索技术公司
运营商所在国:
美国
制造商(研发单位):
太空探索技术公司
制造商所在国:
美国
使用方式:
暂无
卫星简介
星链(Starlink)计划是由太空探索技术公司(SpaceX)提出的一个巨型低轨卫星互联网星座项目,计划在2019年至2024年间在太空搭建由约1.2万颗卫星组成的“星链”网络,其中1584颗将部署在地球上空550千米处的近地轨道,并从2020年开始工作。该卫星仍在工作。